Location: �terpigny
(49.8910°N, 2.9249°E)
Time: 12:09:50
(UTC+00:00)

RS-44 - Pass Details

Date: 07 July 2022
Orbit: 1175 x 1510 km, 82.5° (Epoch: 12 August)

Event Time Altitude Azimuth Distance (km) Brightness Sun altitude
Rises 21:57:56 0° 248° (WSW) 4,489 ? -13.2°
Reaches altitude 10° 22:01:46 10° 264° (W) 3,567 ? -13.5°
Maximum altitude 22:07:48 20° 309° (NW) 2,903 ? -13.9°
Drops below altitude 10° 22:14:01 10° 354° (N) 3,675 ? -14.3°
Sets 22:18:06 0° 11° (N) 4,667 ? -14.6°
